Location: Long Island Community Building
(39.9491°N, 99.5338°W)
Time: 02:51:53
(UTC+00:00)

Cosmos 2322 Rocket - Pass Details

Date: 06 December 2019
Orbit: 831 x 852 km, 71.0° (Epoch: 28 January)

Event Time Altitude Azimuth Distance (km) Brightness Sun altitude
Rises 23:37:31 0° 242° (WSW) 3,367 8.4 -5.0°
Reaches altitude 10° 23:40:32 10° 259° (WSW) 2,439 6.2 -5.6°
Maximum altitude 23:44:42 21° 307° (NW) 1,794 4.3 -6.3°
Drops below altitude 10° 23:48:54 10° 356° (N) 2,458 4.4 -7.0°
Sets 23:51:59 0° 12° (NNE) 3,400 5.0 -7.6°
